Regional Weather Roundup
Issued by NWS

Home | Current Version | Previous Version | Graphics & Text | Print | Product List | Glossary On
Versions: 1 2 3 4 5 6 7 8 9 10 11 12 13 14 15 16 17 18 19 20 21 22 23 24 25 26 27 28 29 30 31 32 33 34 35 36 37 38 39 40 41 42 43 44 45 46 47 48 49 50
000
ASUS43 KMKX 191911
RWRWI

WISCONSIN REGIONAL WEATHER ROUNDUP
NATIONAL WEATHER SERVICE MILWAUKEE/SULLIVAN WI
100 PM CST FRI DEC 19 2014

NOTE: "FAIR" INDICATES FEW OR NO CLOUDS BELOW 12,000 FEET WITH NO
SIGNIFICANT WEATHER AND/OR OBSTRUCTIONS TO VISIBILITY.

WIZ001-002-006>008-014>016-023>028-192000-
NORTHWEST WISCONSIN

CITY           SKY/WX    TMP DP  RH WIND       PRES   REMARKS
SUPERIOR ARPT  CLOUDY    26  22  85 CALM      30.23S
ASHLAND        CLOUDY    25  20  81 S6        30.24F WCI  18
HAYWARD        CLOUDY    24  19  81 S8        30.21F WCI  15
SIREN          CLOUDY    26  20  78 S6        30.22S WCI  19
CUMBERLAND     CLOUDY    27  19  74 S6        30.21F WCI  20
RICE LAKE      CLOUDY    26  20  77 S6        30.24S WCI  19
CHETEK         FLURRIES  26  21  82 SE7       30.24S WCI  18
LADYSMITH      CLOUDY    25  22  87 S6        30.24S WCI  18
EAU CLAIRE     CLOUDY    27  19  72 S8        30.25S WCI  19
MENOMONIE      CLOUDY    28  20  73 SE7       30.25S WCI  20
NEW RICHMOND   CLOUDY    26  22  82 SE8       30.23S WCI  18
OSCEOLA        CLOUDY    27  22  80 SE8       30.25F WCI  19
$$

WIZ003>005-009-010-017-018-192000-
NORTH CENTRAL WISCONSIN

CITY           SKY/WX    TMP DP  RH WIND       PRES   REMARKS
MANITOWISH WTR CLOUDY    21  18  88 S7        30.20S WCI  13
ARBOR VITAE    CLOUDY    22  20  92 SW5       30.20F WCI  15
WOODRUFF       CLOUDY    22  20  92 SW5       30.20F WCI  15
RHINELANDER    CLOUDY    21  18  88 CALM      30.21F
EAGLE RIVER    CLOUDY    22  21  96 CALM      30.20F
LAND O LAKES   CLOUDY    22  22  97 S6        30.20F WCI  15
PHILLIPS       CLOUDY    22  19  89 S7        30.20F WCI  13
TOMAHAWK       CLOUDY    24  18  77 CALM      30.23R
MEDFORD        CLOUDY    21  19  92 S5        30.22S WCI  15
MERRILL        MOSUNNY   24  18  75 CALM      30.23S
$$

WIZ029-030-035-036-043>047-192000-
CENTRAL WISCONSIN

CITY           SKY/WX    TMP DP  RH WIND       PRES   REMARKS
WAUSAU         PTSUNNY   25  18  74 CALM      30.22F
MOSINEE        PTSUNNY   25  19  80 S5        30.25F WCI  19
MARSHFIELD     CLOUDY    24  20  84 SE6       30.24S WCI  17
STEVENS POINT  MOSUNNY   26  17  67 CALM      30.25F
WAUPACA        MOSUNNY   31  20  64 CALM      30.27F
WAUTOMA        MOSUNNY   30  18  61 VRB5      30.28F WCI  25
WISC RAPIDS    CLOUDY    25  18  74 S7        30.27F WCI  17
CAMP DOUGLAS   CLOUDY    25  25  99 VRB3      30.27F
$$

WIZ011>013-019>022-031-037>040-048>050-192000-
NORTHEAST WISCONSIN

CITY           SKY/WX    TMP DP  RH WIND       PRES   REMARKS
ANTIGO         SUNNY     26  19  73 CALM      30.22S
SHAWANO        SUNNY     31  22  68 CALM      30.28S
OCONTO         MOSUNNY   30  20  67 CALM      30.28S
STURGEON BAY   SUNNY     28  19  69 CALM      30.29R
GREEN BAY      SUNNY     28  21  75 S3        30.28S
MANITOWOC      PTSUNNY   32  23  69 CALM      30.28F
APPLETON       PTSUNNY   28  19  69 CALM      30.27F
CLINTONVILLE   MOSUNNY   28  19  69 CALM      30.27F
OSHKOSH        MOSUNNY   28  19  69 W3        30.28S
$$

WIZ032>034-041-042-053>061-192000-
SOUTHWEST WISCONSIN

CITY           SKY/WX    TMP DP  RH WIND       PRES   REMARKS
LA CROSSE      CLOUDY    30  20  66 S7        30.27F WCI  23
SPARTA         PTSUNNY   29  19  65 S5        30.27F WCI  24
VIROQUA        CLOUDY    27  20  75 CALM      30.23F
BOSCOBEL       CLOUDY    30  18  60 E3        30.28F
PRAIRIE DU CHI CLOUDY    29  20  69 CALM      30.28F
PLATTEVILLE    CLOUDY    29  21  72 CALM      30.26F
$$

WIZ056-057-062-063-064-067-068-192000-
SOUTH CENTRAL WISCONSIN

CITY           SKY/WX    TMP DP  RH WIND       PRES   REMARKS
REEDSBURG      CLOUDY    25  20  83 S3        30.27F
BARABOO/DELLS  CLOUDY    24  20  84 CALM      30.27F
LONE ROCK      CLOUDY    31  18  58 E5        30.28F WCI  26
MINERAL POINT  CLOUDY    30  21  69 CALM      30.25F
MADISON        CLOUDY    26  20  77 CALM      30.27F
MIDDLETON      CLOUDY    27  21  77 CALM      30.28F
WATERTOWN      CLOUDY    28  18  68 CALM      30.28F
MONROE         CLOUDY    27  23  86 CALM      30.25F
JANESVILLE     CLOUDY    28  21  74 CALM      30.28F
$$

WIZ051-052-058>065-066-070>072-192000-
SOUTHEAST WISCONSIN

CITY           SKY/WX    TMP DP  RH WIND       PRES   REMARKS
MILWAUKEE      CLOUDY    31  18  58 SW7       30.28F WCI  24
WAUKESHA       CLOUDY    28  18  64 MISG      30.28F
MILWAUKEE/TIMM CLOUDY    30  18  59 SW6       30.28F WCI  24
RACINE         CLOUDY    30  19  63 W6        30.29F WCI  24
BURLINGTON     CLOUDY    27  17  67 W3        30.28F
KENOSHA        CLOUDY    30  20  66 W7        30.28F WCI  23
FOND DU LAC    CLOUDY    29  20  69 S3        30.28F
SHEBOYGAN      CLOUDY    30  21  69 W6        30.27F WCI  24
WEST BEND      CLOUDY    30  21  69 W5        30.27S WCI  25
JUNEAU         CLOUDY    27  19  71 CALM      30.29S
$$

LSZ147-162-192000-
LAKE SUPERIOR

STATION/POSITION TIME  TEMP    WIND        PRES    WAVE
                       AIR SEA DIR/SP/G            HT/PER
                 (UTC) (F)     (DEG/KT/KT) (MB)    (FT/S)
DEVILS ISLAND    1900   24     220/  4/  5 1025.4F
PORT WING        1800   25     180/  3/  5 1024.4
SAXON HARBOR     1800   25     180/  2/  6 1024.4F
$$

LMZ867-665-643>646-192000-
LAKE MICHIGAN

STATION/POSITION TIME  TEMP    WIND        PRES    WAVE
                       AIR SEA DIR/SP/G            HT/PER
                 (UTC) (F)     (DEG/KT/KT) (MB)    (FT/S)
CHAMBERS ISLAND  1800   29     340/  2/  4 1025.4F
NORTHPORT PIER   1820   28     310/  2/  8 1025.1F
SISTER BAY       1758          360/  7/  7   N/A
ALGOMA LAKESHORE 1814           CALM  /  4   N/A
KEWAUNEE LAKESHO 1800   29      CALM  /  4 1024.5F
SHEBOYGAN LAKESH 1900   30 33  290/  6/  6 1026.3F
PORT WASHINGTON  1840   31     310/  5/  7 1026.1F
MILWAUKEE LAKESH 1800   30     230/  6/  7   N/A
KENOSHA   LAKESH 1900   29     270/  5/  8 1025.4F
$$

TC  - TEMPERATURE IN CELSIUS
VSB - VISIBILITY IN STATUTE MILES
WCI - WIND CHILL INDEX
HX  - HEAT INDEX




USA.gov is the U.S. government's official web portal to all federal, state and local government web resources and services.